Regional Weather Roundup
Issued by NWS

Home | Current Version | Previous Version | Graphics & Text | Print | Product List | Glossary On
Versions: 1 2 3 4 5 6 7 8 9 10 11 12 13 14 15 16 17 18 19 20 21 22 23 24 25 26 27
000
ASUS45 KBOU 251207
RWRCO

WEATHER ROUNDUP FOR COLORADO
NATIONAL WEATHER SERVICE DENVER/BOULDER CO
600 AM MDT SAT OCT 25 2014

NOTE: "FAIR" INDICATES FEW OR NO CLOUDS BELOW 12000 FEET WITH NO
SIGNIFICANT WEATHER AND/OR OBSTRUCTIONS TO VISIBILITY.

COZ001>005-013-030-031-251300-
...NORTHWEST COLORADO...

CITY           SKY/WX    TMP DP  RH WIND       PRES   REMARKS
CRAIG          CLEAR     27  22  81 SW3       30.32R
HAYDEN         CLEAR     37  23  56 E13       30.33R
MEEKER         CLEAR     35  27  72 CALM      30.32S
MOUNT WERNER   NOT AVBL
STEAMBOAT SPGS CLEAR     33  24  70 CALM      30.36R
WALDEN         CLEAR     30  19  64 SE7       30.39S WCI  23
$$

COZ006>008-011-251300-
...WEST CENTRAL VALLEYS...

CITY           SKY/WX    TMP DP  RH WIND       PRES   REMARKS
GRAND JUNCTION CLEAR     44  32  62 SE12      30.25S
MONTROSE       CLEAR     39  28  64 SE8       30.33S
EAGLE          PTCLDY    30  27  86 CALM      30.43R
RIFLE          CLEAR     37  29  72 CALM      30.32R
DELTA          CLEAR     40  30  66 CALM      30.31R
NUCLA          CLEAR     41  25  52 SE7       30.34F
$$

COZ017>023-064>068-251300-
...SOUTHWEST COLORADO...

CITY           SKY/WX    TMP DP  RH WIND       PRES   REMARKS
DURANGO        PTCLDY    36  31  82 NE5       30.36S
CORTEZ         CLEAR     33  26  75 E3        30.31S
PAGOSA SPRINGS PTCLDY    36  30  81 CALM      30.41S
TELLURIDE      CLEAR     42  18  38 SE5       30.49F
WOLF CREEK PAS CLEAR     39  14  35 SW10        N/A
$$

COZ009-010-012-014-032>034-037-058>063-251300-
...CENTRAL COLORADO...

CITY           SKY/WX    TMP DP  RH WIND       PRES   REMARKS
ASPEN          CLEAR     31  19  61 MISG      30.40S
BUENA VISTA    PTCLDY    31  19  61 NW3       30.43S
COPPER MTN     CLEAR     45  -4  13 SW5       30.62S
BERTHOUD PASS  FAIR      34  30  86 NW14G21   30.64S WCI  24
COTTONWOOD PAS PTCLDY    52  -6   9 NW9       30.50S
GUNNISON       PTCLDY    21  16  79 NE3       30.50S
KREMMLING      CLEAR     23  19  86 CALM        N/A
LEADVILLE      PTCLDY    25  11  55 N3        30.51R
MONARCH PASS   CLEAR     37  16  41 W21       30.72R
SALIDA         PTCLDY    39  21  49 NW3       30.50R
SUNLIGHT       CLEAR     43  19  39 CALM      30.56S
WILKERSON PASS NOT AVBL
$$

COZ069>075-251300-
...SAN LUIS VALLEY/SANGRE DE CRISTO MOUNTAINS...

CITY           SKY/WX    TMP DP  RH WIND       PRES   REMARKS
ALAMOSA        MOCLDY    25  21  85 CALM      30.40F
LA VETA PASS   CLEAR     45  21  39 S7        30.52S
SAGUACHE       PTCLDY    39  19  45 N13       30.43S
$$

COZ035-036-038>040-251300-
...NORTHERN COLORADO FRONT RANGE...

CITY           SKY/WX    TMP DP  RH WIND       PRES   REMARKS
DENVER INTL AP CLEAR     50  23  34 SW9       30.22R
DMNS CITY PARK   N/A     46  27  47 S5        30.23S
AURORA         CLEAR     53  21  29 SW8       30.24R
FRONT RANGE AP CLEAR     52  25  35 SW8       30.23S
ERIE MUNI ARPT CLEAR     35  29  79 S3        30.22R
BOULDER MUN AP CLEAR     50  27  40 S3        30.22R
CENTENNIAL     CLEAR     51  21  30 W10       30.24R
BROOMFIELD     CLEAR     52  21  30 W3        30.24R
FORT COLLINS   CLEAR     43  30  61 SE3       30.22R
LONGMONT       CLEAR     41  29  62 S3        30.23S
$$

COZ041-046-047-076>085-087-088-251300-
...PIKES PEAK/PALMER DIVIDE AND SOUTHERN FOOTHILLS...

CITY           SKY/WX    TMP DP  RH WIND       PRES   REMARKS
COLO. SPRINGS  PTCLDY    52  17  25 N7        30.25S
A. F. ACADEMY  PTCLDY    46  17  30 E2        30.28R
ELLICOTT       NOT AVBL
FALCON         PTCLDY    51  14  22 NW9       30.30R
FORT CARSON    CLEAR     51  22  31 SW2       30.23R
LIMON          CLEAR     48  28  46 N8        30.21R
MONUMENT HILL  CLEAR     45  16  31 SW6       30.30R
TRINIDAD       CLEAR     50  27  40 W16       30.24S
$$

COZ042>045-048>051-090-091-251300-
...NORTHEAST COLORADO...

CITY           SKY/WX    TMP DP  RH WIND       PRES   REMARKS
GREELEY ARPT   CLEAR     34  25  69 CALM      30.21R
AKRON          LGT RAIN  46  28  49 W14       30.16R
BURLINGTON     CLEAR     45  32  60 W7        30.13S
WRAY           CLEAR     41  32  69 SW8       30.12S
STERLING       CLEAR     36  32  87 S5        30.14S
HOLYOKE        CLEAR     43  32  65 N7        30.11F
FORT MORGAN    CLEAR     39  31  71 W15       30.17S
$$

COZ086-089-092>099-251300-
...SOUTHEAST COLORADO...

CITY           SKY/WX    TMP DP  RH WIND       PRES   REMARKS
PUEBLO         CLEAR     45  28  51 W9        30.18R
LA JUNTA       CLEAR     47  31  53 S7        30.15R
LAMAR          PTCLDY    44  37  76 SW3       30.11S
SPRINGFIELD      N/A     46  36  68 W5        30.15R
$$



USA.gov is the U.S. government's official web portal to all federal, state and local government web resources and services.